AT994 Weather Reports


time (UTC)temp
F
wind
direction
speed
knots
gust
knots
rain 1hr
in
rain 24hr
in
rain mn
in
humidity
%
barometer
mb
20260505035312 64 184 0.0 0.9 0.00 0.00 0.00 55 1001.4
20260505034311 64 193 0.0 2.6 0.00 0.00 0.00 54 1001.8
20260505033311 65 211 0.9 7.0 0.00 0.00 0.00 53 1001.9
20260505032310 65 165 0.9 9.6 0.00 0.00 0.00 50 1001.9
20260505031309 64 208 0.0 0.0 0.00 0.00 0.00 51 1002.1
20260505030304 64 208 0.0 0.0 0.00 0.00 0.00 50 1001.5
20260505025305 63 207 0.0 0.0 0.00 0.00 0.00 50 1001.5
20260505024304 63 207 0.0 0.0 0.00 0.00 0.00 50 1001.5
20260505023304 64 208 0.0 0.0 0.00 0.00 0.00 49 1001.5
20260505022304 64 207 0.0 0.0 0.00 0.00 0.00 48 1001.5
20260505021304 64 207 0.0 0.0 0.00 0.00 0.00 47 1001.6
20260505020304 65 211 0.0 0.9 0.00 0.00 0.00 46 1001.8
20260505015304 65 211 0.0 2.6 0.00 0.00 0.00 46 1001.9
20260505014301 65 220 0.0 0.0 0.00 0.00 0.00 46 1002.1
20260505013741 66 220 0.0 0.0 0.00 0.00 0.00 44 1001.9
20260505012739 67 220 0.0 0.0 0.00 0.00 0.00 43 1001.9
20260505011302 67 220 0.0 0.0 0.00 0.00 0.00 42 1001.8
20260505010302 67 219 0.0 0.0 0.00 0.00 0.00 42 1001.8
20260505005304 68 220 0.0 0.0 0.00 0.00 0.00 40 1001.6
20260505004302 68 220 0.0 0.0 0.00 0.00 0.00 40 1001.5
20260505003302 69 221 0.0 0.0 0.00 0.00 0.00 39 1001.5
20260505002749 70 221 0.0 0.0 0.00 0.00 0.00 37 1001.6
20260505001301 70 230 0.0 3.5 0.00 0.00 0.00 37 1001.8
20260505000301 71 234 0.0 0.0 0.00 0.00 0.00 36 1001.8
20260504235748 71 237 0.0 0.9 0.00 0.01 0.00 35 1001.6
20260504234746 71 235 0.0 0.0 0.00 0.01 0.00 36 1001.5
20260504233301 72 242 0.0 0.0 0.00 0.01 0.00 35 1001.6
20260504232303 72 242 0.0 0.0 0.00 0.01 0.00 34 1001.6
20260504231302 73 229 0.9 11.3 0.00 0.01 0.00 33 1001.6
20260504230739 73 198 0.9 7.8 0.00 0.01 0.00 33 1001.6
20260504225740 73 250 0.0 9.6 0.00 0.01 0.00 32 1001.5
20260504224301 74 240 0.9 8.7 0.00 0.01 0.00 32 1001.4
20260504223301 74 248 0.0 6.1 0.00 0.01 0.00 31 1001.4
20260504222301 75 237 0.9 9.6 0.00 0.01 0.00 32 1001.4
20260504221301 75 223 0.9 6.1 0.00 0.01 0.00 31 1001.3
20260504220735 75 229 0.0 6.1 0.00 0.01 0.00 31 1001.3
20260504215301 75 227 1.7 14.8 0.00 0.01 0.00 31 1001.4
20260504214301 75 235 2.6 14.8 0.00 0.01 0.00 33 1001.5
20260504213735 75 232 1.7 12.2 0.00 0.01 0.00 30 1001.5
20260504212303 75 233 3.5 15.6 0.00 0.01 0.00 32 1001.5
20260504211301 76 232 2.6 16.5 0.00 0.01 0.00 30 1001.6
20260504210301 75 212 4.3 15.6 0.00 0.01 0.00 31 1001.6
20260504205301 76 219 1.7 14.8 0.00 0.01 0.00 31 1001.8
20260504204302 76 213 1.7 18.2 0.00 0.01 0.00 31 1001.9
20260504203301 76 259 2.6 13.9 0.00 0.01 0.00 34 1002.0
20260504202301 75 199 3.5 18.2 0.00 0.01 0.00 34 1002.1
20260504201301 75 225 6.1 23.5 0.00 0.01 0.00 34 1002.1
20260504200654 75 229 2.6 14.8 0.00 0.01 0.00 35 1002.5
20260504200430 75 234 4.3 19.1 0.00 0.01 0.00 33 1002.3
20260504194301 74 227 2.6 16.5 0.00 0.01 0.00 34 1002.6
20260504193301 74 243 3.5 17.4 0.00 0.01 0.00 38 1002.8
20260504192742 74 257 2.6 13.9 0.00 0.01 0.00 36 1002.9
20260504191300 73 239 3.5 12.2 0.00 0.01 0.00 37 1003.0
20260504190300 72 250 6.1 20.0 0.00 0.01 0.00 36 1003.2
20260504185302 72 223 9.6 23.5 0.00 0.01 0.00 37 1003.3
20260504184741 72 230 5.2 18.2 0.00 0.01 0.00 38 1003.5
20260504183301 72 240 4.3 17.4 0.00 0.01 0.00 40 1003.5
20260504182301 71 226 7.0 23.5 0.00 0.01 0.00 40 1003.7
20260504181301 71 0 6.1 17.4 0.00 0.01 0.00 42 1003.8
20260504180301 72 226 3.5 13.0 0.00 0.01 0.00 42 1003.7
20260504175301 71 0 2.6 14.8 0.00 0.01 0.00 42 1003.9
20260504174301 71 0 2.6 13.0 0.00 0.01 0.00 43 1004.0
20260504173301 70 224 4.3 14.8 0.00 0.01 0.00 45 1004.0
20260504172301 70 254 2.6 17.4 0.00 0.01 0.00 43 1004.2
20260504171301 69 169 2.6 13.9 0.00 0.01 0.00 44 1004.1
20260504170301 69 244 3.5 13.9 0.00 0.01 0.00 44 1004.2
20260504160301 66 202 3.5 16.5 0.00 0.01 0.00 47 1004.7
20260504150301 64 0 2.6 19.1 0.00 0.01 0.00 47 1005.1
20260504140301 62 223 3.5 16.5 0.00 0.01 0.00 49 1005.0
20260504130300 58 209 0.0 4.3 0.00 0.01 0.00 54 1005.8
20260504110301 52 174 0.0 2.6 0.00 0.01 0.00 59 1005.8
20260504100302 53 195 0.0 4.3 0.00 0.01 0.00 54 1005.4
20260504081301 52 180 0.0 3.5 0.00 0.01 0.00 57 1006.3
20260504080301 52 202 0.9 7.8 0.00 0.01 0.00 57 1006.4
20260504050257 55 222 1.7 13.9 0.00 0.01 0.00 51 1007.6
20260504045259 55 0 0.9 13.0 0.00 0.01 0.00 52 1007.6
20260504044257 55 223 1.7 13.0 0.00 0.01 0.00 51 1007.7
20260504043731 55 217 2.6 13.0 0.00 0.01 0.00 51 1007.6
20260504042713 55 246 1.7 13.0 0.00 0.01 0.00 50 1007.7
20260504042443 55 221 1.7 13.9 0.00 0.01 0.00 51 1007.7